LOT311 EPWA-EFHK

Flight info

Callsign LOT311
Flight time 1h 25m
Altitude 33000
Route BAMSO Z182 ASLUX DCT BULEP M857 UNPEG DCT BOKSU DCT GUNTA M857 SOKVA DCT ANAMA DCT KEMET DCT KEXLE DCT BEKNA DCT INTOR
Aircraft B38M/M-SDE1FGHILORVWXY/HB1

Departure

Time 2026-05-08 00:18
Airport Warsaw Chopin Airport (EPWA)

Arrival

Time 2026-05-08 01:44
Airport Helsinki Vantaa Airport (EFHK)
Time Latitude Longitude Altitude Speed Heading
2026-05-07 23:57 52.16999 20.97141 352 ft 0 kts 69°
2026-05-08 00:08 52.16996 20.97127 352 ft 4 kts 69°
2026-05-08 00:09 52.16986 20.97086 362 ft 4 kts 69°
2026-05-08 00:09 52.16977 20.97049 360 ft 2 kts 69°
2026-05-08 00:09 52.16973 20.97013 358 ft 4 kts 110°
2026-05-08 00:09 52.16989 20.96984 362 ft 4 kts 152°
2026-05-08 00:10 52.17007 20.96969 362 ft 0 kts 152°
2026-05-08 00:14 52.16999 20.96976 360 ft 4 kts 152°
2026-05-08 00:14 52.16957 20.97012 357 ft 9 kts 152°
2026-05-08 00:14 52.16897 20.97065 355 ft 11 kts 152°
2026-05-08 00:14 52.16820 20.97132 358 ft 14 kts 152°
2026-05-08 00:15 52.16729 20.97212 352 ft 16 kts 152°
2026-05-08 00:15 52.16624 20.97305 354 ft 18 kts 151°
2026-05-08 00:15 52.16542 20.97474 358 ft 20 kts 112°
2026-05-08 00:15 52.16484 20.97696 355 ft 22 kts 114°
2026-05-08 00:16 52.16418 20.97933 355 ft 24 kts 114°
2026-05-08 00:16 52.16348 20.98191 354 ft 26 kts 114°
2026-05-08 00:16 52.16282 20.98419 355 ft 18 kts 123°
2026-05-08 00:16 52.16204 20.98444 353 ft 11 kts 201°
2026-05-08 00:17 52.16132 20.98390 358 ft 11 kts 228°
2026-05-08 00:17 52.16141 20.98260 356 ft 13 kts 295°
2026-05-08 00:17 52.16146 20.98241 361 ft 2 kts 295°
2026-05-08 00:17 52.16156 20.98206 359 ft 6 kts 295°
2026-05-08 00:18 52.16230 20.97956 360 ft 61 kts 296°
2026-05-08 00:18 52.16516 20.96923 351 ft 136 kts 294°
2026-05-08 00:18 52.16977 20.95238 466 ft 183 kts 296°
2026-05-08 00:18 52.17529 20.93361 1365 ft 182 kts 298°
2026-05-08 00:19 52.18071 20.91561 2466 ft 174 kts 298°
2026-05-08 00:19 52.18694 20.89812 3141 ft 188 kts 309°
2026-05-08 00:19 52.19758 20.88434 3767 ft 207 kts 333°
2026-05-08 00:19 52.21179 20.87766 4534 ft 222 kts 349°
2026-05-08 00:20 52.22778 20.87378 5143 ft 243 kts 345°
2026-05-08 00:20 52.24303 20.86097 5869 ft 250 kts 313°
2026-05-08 00:20 52.25310 20.83865 6957 ft 248 kts 301°
2026-05-08 00:20 52.26307 20.81528 7819 ft 258 kts 310°
2026-05-08 00:21 52.27824 20.79809 8434 ft 278 kts 339°
2026-05-08 00:21 52.29770 20.79490 9281 ft 286 kts
2026-05-08 00:21 52.31661 20.80563 10184 ft 294 kts 30°
2026-05-08 00:21 52.33279 20.82741 10706 ft 313 kts 51°
2026-05-08 00:22 52.34329 20.85937 11185 ft 329 kts 75°
2026-05-08 00:22 52.34575 20.89698 11812 ft 339 kts 90°
2026-05-08 00:22 52.34604 20.93617 12521 ft 348 kts 90°
2026-05-08 00:22 52.34621 20.97530 13387 ft 352 kts 91°
2026-05-08 00:23 52.34624 21.01568 14145 ft 358 kts 91°
2026-05-08 00:23 52.34618 21.05662 14935 ft 361 kts 92°
2026-05-08 00:23 52.34756 21.09783 15708 ft 367 kts 81°
2026-05-08 00:23 52.35351 21.13856 16487 ft 371 kts 79°
2026-05-08 00:24 52.35936 21.17986 17211 ft 375 kts 79°
2026-05-08 00:24 52.36526 21.22175 17956 ft 379 kts 79°
2026-05-08 00:24 52.37120 21.26404 18628 ft 383 kts 80°
2026-05-08 00:24 52.37710 21.30621 19238 ft 386 kts 81°
2026-05-08 00:25 52.37869 21.34959 19856 ft 382 kts 99°
2026-05-08 00:25 52.37573 21.39296 20437 ft 386 kts 100°
2026-05-08 00:25 52.37270 21.43671 21047 ft 389 kts 101°
2026-05-08 00:25 52.36948 21.48077 21663 ft 391 kts 101°
2026-05-08 00:26 52.36611 21.52520 22261 ft 395 kts 102°
2026-05-08 00:26 52.36266 21.57000 22838 ft 398 kts 102°
2026-05-08 00:26 52.35916 21.61512 23405 ft 402 kts 102°
2026-05-08 00:26 52.35561 21.66067 23884 ft 406 kts 102°
2026-05-08 00:27 52.35204 21.70607 24349 ft 409 kts 102°
2026-05-08 00:27 52.34839 21.75243 24800 ft 413 kts 103°
2026-05-08 00:27 52.34468 21.79925 24980 ft 416 kts 103°
2026-05-08 00:27 52.34096 21.84603 25020 ft 415 kts 103°
2026-05-08 00:28 52.33722 21.89284 25015 ft 415 kts 102°
2026-05-08 00:28 52.33421 21.93993 25017 ft 416 kts 101°
2026-05-08 00:28 52.33128 21.98692 25013 ft 417 kts 101°
2026-05-08 00:28 52.32854 22.03421 25006 ft 419 kts 97°
2026-05-08 00:29 52.33153 22.08128 25007 ft 428 kts 79°
2026-05-08 00:29 52.34308 22.12646 25013 ft 436 kts 61°
2026-05-08 00:29 52.36230 22.16511 25015 ft 441 kts 44°
2026-05-08 00:29 52.38735 22.19405 25016 ft 443 kts 27°
2026-05-08 00:30 52.41593 22.21316 25170 ft 446 kts 20°
2026-05-08 00:30 52.44516 22.23069 25634 ft 448 kts 19°
2026-05-08 00:30 52.47461 22.24798 26098 ft 452 kts 19°
2026-05-08 00:30 52.50396 22.26495 26506 ft 455 kts 19°
2026-05-08 00:31 52.53388 22.28215 26947 ft 458 kts 19°
2026-05-08 00:31 52.56408 22.29948 27369 ft 461 kts 19°
2026-05-08 00:31 52.59445 22.31692 27782 ft 464 kts 19°
2026-05-08 00:31 52.62502 22.33451 28205 ft 467 kts 19°
2026-05-08 00:32 52.65574 22.35220 28612 ft 470 kts 19°
2026-05-08 00:32 52.68667 22.37004 29015 ft 473 kts 19°
2026-05-08 00:32 52.71781 22.38803 29404 ft 475 kts 19°
2026-05-08 00:32 52.74873 22.40592 29790 ft 478 kts 19°
2026-05-08 00:33 52.78053 22.42210 30146 ft 480 kts 11°
2026-05-08 00:33 52.81327 22.43388 30471 ft 483 kts 11°
2026-05-08 00:33 52.84611 22.44586 30804 ft 485 kts 11°
2026-05-08 00:33 52.87916 22.45781 31133 ft 487 kts 11°
2026-05-08 00:34 52.91237 22.46982 31444 ft 489 kts 11°
2026-05-08 00:34 52.94570 22.48190 31771 ft 492 kts 11°
2026-05-08 00:34 52.97921 22.49406 32081 ft 494 kts 11°
2026-05-08 00:34 53.01244 22.50613 32388 ft 496 kts 11°
2026-05-08 00:35 53.04627 22.51844 32702 ft 498 kts 11°
2026-05-08 00:35 53.08013 22.53078 33007 ft 500 kts 11°
2026-05-08 00:35 53.14788 22.55554 33041 ft 497 kts 11°
2026-05-08 00:36 53.21539 22.58028 33032 ft 496 kts 11°
2026-05-08 00:36 53.28254 22.60741 33036 ft 497 kts 13°
2026-05-08 00:37 53.34890 22.63621 33036 ft 496 kts 13°
2026-05-08 00:38 53.44911 22.67951 33036 ft 495 kts 13°
2026-05-08 00:38 53.51539 22.70825 33042 ft 495 kts 13°
2026-05-08 00:39 53.58199 22.73723 33040 ft 494 kts 13°
2026-05-08 00:39 53.64863 22.76632 33046 ft 494 kts 13°
2026-05-08 00:40 53.71518 22.79547 33046 ft 494 kts 13°
2026-05-08 00:40 53.78122 22.82448 33053 ft 494 kts 13°
2026-05-08 00:41 53.84763 22.85376 33055 ft 493 kts 13°
2026-05-08 00:41 53.91401 22.88312 33058 ft 493 kts 13°
2026-05-08 00:42 53.98032 22.91254 33058 ft 492 kts 13°
2026-05-08 00:42 54.04660 22.94204 33053 ft 492 kts 13°
2026-05-08 00:43 54.11233 22.97140 33059 ft 492 kts 13°
2026-05-08 00:43 54.17852 23.00106 33063 ft 492 kts 13°
2026-05-08 00:44 54.24464 23.03078 33062 ft 491 kts 13°
2026-05-08 00:44 54.31082 23.05947 33062 ft 489 kts
2026-05-08 00:45 54.37738 23.07950 33069 ft 489 kts
2026-05-08 00:45 54.44432 23.10089 33069 ft 489 kts
2026-05-08 00:46 54.51113 23.12251 33073 ft 488 kts
2026-05-08 00:46 54.57791 23.14421 33068 ft 488 kts
2026-05-08 00:47 54.64424 23.16584 33065 ft 488 kts
2026-05-08 00:47 54.71093 23.18766 33074 ft 488 kts
2026-05-08 00:48 54.77759 23.20954 33075 ft 488 kts
2026-05-08 00:48 54.84420 23.23147 33072 ft 487 kts
2026-05-08 00:49 54.91039 23.25334 33076 ft 487 kts
2026-05-08 00:49 54.97705 23.27545 33080 ft 487 kts
2026-05-08 00:50 55.04365 23.29760 33083 ft 487 kts
2026-05-08 00:50 55.11019 23.31981 33084 ft 487 kts
2026-05-08 00:51 55.17673 23.34209 33089 ft 487 kts
2026-05-08 00:51 55.24283 23.36431 33091 ft 487 kts
2026-05-08 00:52 55.30947 23.38677 33093 ft 487 kts
2026-05-08 00:52 55.37595 23.40927 33096 ft 487 kts
2026-05-08 00:53 55.44247 23.43186 33099 ft 487 kts
2026-05-08 00:53 55.50849 23.45435 33101 ft 486 kts
2026-05-08 00:54 55.57485 23.47704 33113 ft 486 kts
2026-05-08 00:54 55.64117 23.49978 33116 ft 485 kts
2026-05-08 00:55 55.70750 23.52261 33124 ft 485 kts
2026-05-08 00:55 55.77371 23.54548 33130 ft 484 kts
2026-05-08 00:56 55.83939 23.56825 33132 ft 484 kts
2026-05-08 00:56 55.90543 23.59121 33132 ft 483 kts
2026-05-08 00:57 55.97128 23.61420 33130 ft 482 kts
2026-05-08 00:57 56.03710 23.63725 33131 ft 481 kts
2026-05-08 00:58 56.10227 23.66015 33132 ft 480 kts
2026-05-08 00:58 56.16777 23.68325 33132 ft 479 kts
2026-05-08 00:59 56.23316 23.70638 33130 ft 479 kts
2026-05-08 00:59 56.29853 23.72958 33132 ft 478 kts
2026-05-08 01:00 56.36338 23.75277 33132 ft 479 kts
2026-05-08 01:00 56.42840 23.77858 33136 ft 479 kts
2026-05-08 01:01 56.49350 23.80431 33139 ft 478 kts
2026-05-08 01:01 56.55849 23.83005 33137 ft 477 kts
2026-05-08 01:02 56.62339 23.85449 33140 ft 476 kts
2026-05-08 01:02 56.68789 23.87830 33139 ft 475 kts
2026-05-08 01:03 56.75263 23.90234 33136 ft 475 kts
2026-05-08 01:03 56.81729 23.92644 33133 ft 474 kts
2026-05-08 01:04 56.88184 23.95058 33135 ft 473 kts
2026-05-08 01:04 56.94594 23.97303 33132 ft 471 kts
2026-05-08 01:05 57.01048 23.99446 33132 ft 471 kts
2026-05-08 01:05 57.07493 24.01608 33136 ft 470 kts
2026-05-08 01:06 57.13918 24.03772 33143 ft 469 kts
2026-05-08 01:06 57.20340 24.05943 33138 ft 469 kts
2026-05-08 01:07 57.26705 24.08102 33136 ft 468 kts
2026-05-08 01:07 57.33099 24.10278 33145 ft 467 kts
2026-05-08 01:08 57.39484 24.12460 33143 ft 466 kts
2026-05-08 01:08 57.45848 24.14637 33147 ft 465 kts
2026-05-08 01:09 57.52166 24.16805 33149 ft 464 kts
2026-05-08 01:09 57.58505 24.18988 33149 ft 463 kts
2026-05-08 01:10 57.64840 24.21176 33151 ft 462 kts
2026-05-08 01:10 57.71161 24.23367 33152 ft 461 kts
2026-05-08 01:11 57.77463 24.25559 33160 ft 461 kts
2026-05-08 01:11 57.83717 24.27743 33159 ft 460 kts
2026-05-08 01:12 57.89999 24.29935 33164 ft 458 kts
2026-05-08 01:12 57.96273 24.32076 33174 ft 458 kts
2026-05-08 01:13 58.02537 24.34228 33162 ft 457 kts
2026-05-08 01:13 58.08750 24.36369 33164 ft 457 kts
2026-05-08 01:14 58.14996 24.38530 33167 ft 456 kts
2026-05-08 01:14 58.21248 24.40700 33175 ft 456 kts
2026-05-08 01:15 58.27487 24.42873 33179 ft 456 kts
2026-05-08 01:15 58.33692 24.45043 33184 ft 456 kts
2026-05-08 01:16 58.39931 24.47232 33181 ft 456 kts
2026-05-08 01:16 58.46166 24.49427 33182 ft 456 kts
2026-05-08 01:17 58.52408 24.51632 33182 ft 456 kts
2026-05-08 01:17 58.58605 24.53828 33182 ft 456 kts
2026-05-08 01:18 58.64841 24.56047 33180 ft 456 kts
2026-05-08 01:18 58.71038 24.58260 32437 ft 451 kts
2026-05-08 01:18 58.74152 24.59373 31433 ft 458 kts
2026-05-08 01:19 58.77301 24.60502 30694 ft 459 kts
2026-05-08 01:19 58.80417 24.61620 30281 ft 452 kts
2026-05-08 01:19 58.83486 24.62724 29691 ft 447 kts
2026-05-08 01:19 58.86527 24.63820 29143 ft 442 kts
2026-05-08 01:20 58.89499 24.64893 28630 ft 437 kts
2026-05-08 01:20 58.92474 24.65969 28126 ft 432 kts
2026-05-08 01:20 58.95415 24.67034 27612 ft 428 kts
2026-05-08 01:20 58.98329 24.68090 27111 ft 424 kts
2026-05-08 01:21 59.01213 24.69139 26620 ft 420 kts
2026-05-08 01:21 59.04072 24.70179 26135 ft 417 kts
2026-05-08 01:21 59.06917 24.71216 25658 ft 414 kts
2026-05-08 01:21 59.09735 24.72246 25184 ft 411 kts
2026-05-08 01:22 59.12496 24.73256 24728 ft 408 kts
2026-05-08 01:22 59.15271 24.74273 24274 ft 405 kts
2026-05-08 01:22 59.18029 24.75285 23823 ft 402 kts
2026-05-08 01:22 59.20772 24.76294 23297 ft 399 kts
2026-05-08 01:23 59.23484 24.77293 22835 ft 395 kts
2026-05-08 01:23 59.26179 24.78287 22403 ft 391 kts
2026-05-08 01:23 59.28833 24.79268 21990 ft 386 kts
2026-05-08 01:23 59.31461 24.80240 21575 ft 382 kts
2026-05-08 01:24 59.34061 24.81202 21174 ft 379 kts
2026-05-08 01:24 59.36605 24.82146 20777 ft 375 kts
2026-05-08 01:24 59.39155 24.83094 20385 ft 371 kts
2026-05-08 01:24 59.41667 24.84253 19948 ft 376 kts 14°
2026-05-08 01:25 59.44076 24.86261 19573 ft 374 kts 16°
2026-05-08 01:25 59.46468 24.88240 19200 ft 371 kts 16°
2026-05-08 01:25 59.48834 24.90198 18808 ft 368 kts 16°
2026-05-08 01:25 59.51187 24.92151 18405 ft 365 kts 16°
2026-05-08 01:26 59.53521 24.94092 17936 ft 363 kts 16°
2026-05-08 01:26 59.55835 24.96019 17544 ft 359 kts 16°
2026-05-08 01:26 59.58094 24.97903 17198 ft 354 kts 17°
2026-05-08 01:26 59.60348 24.99785 16824 ft 350 kts 17°
2026-05-08 01:27 59.62580 25.01651 16466 ft 346 kts 17°
2026-05-08 01:27 59.64784 25.03498 16105 ft 341 kts 17°
2026-05-08 01:27 59.66953 25.05317 15747 ft 336 kts 17°
2026-05-08 01:27 59.69076 25.07101 15604 ft 324 kts 17°
2026-05-08 01:28 59.71111 25.08814 15551 ft 311 kts 16°
2026-05-08 01:28 59.73082 25.10470 15421 ft 309 kts 16°
2026-05-08 01:28 59.75093 25.12166 15100 ft 317 kts 16°
2026-05-08 01:28 59.77111 25.13869 14774 ft 320 kts 17°
2026-05-08 01:29 59.79162 25.15604 14431 ft 320 kts 17°
2026-05-08 01:29 59.81197 25.17326 14081 ft 317 kts 17°
2026-05-08 01:29 59.83223 25.19046 13690 ft 315 kts 17°
2026-05-08 01:29 59.85228 25.20750 13392 ft 310 kts 17°
2026-05-08 01:30 59.87175 25.22405 13273 ft 299 kts 17°
2026-05-08 01:30 59.89059 25.24008 13139 ft 289 kts 16°
2026-05-08 01:30 59.90956 25.24899 12782 ft 275 kts 354°
2026-05-08 01:30 59.92820 25.24687 12482 ft 271 kts 352°
2026-05-08 01:31 59.94688 25.24483 12180 ft 267 kts 352°
2026-05-08 01:31 59.96533 25.24259 11883 ft 265 kts 352°
2026-05-08 01:31 59.98365 25.24022 11584 ft 262 kts 352°
2026-05-08 01:31 60.00173 25.23778 11291 ft 260 kts 352°
2026-05-08 01:32 60.01973 25.23528 10996 ft 260 kts 353°
2026-05-08 01:32 60.03797 25.23272 10692 ft 266 kts 353°
2026-05-08 01:32 60.05656 25.23010 10416 ft 268 kts 353°
2026-05-08 01:32 60.07498 25.22748 10277 ft 263 kts 353°
2026-05-08 01:33 60.09286 25.22495 10057 ft 261 kts 354°
2026-05-08 01:33 60.11092 25.22236 9711 ft 260 kts 353°
2026-05-08 01:33 60.12890 25.21979 9409 ft 258 kts 354°
2026-05-08 01:33 60.14673 25.21724 9098 ft 256 kts 353°
2026-05-08 01:34 60.16444 25.21471 8800 ft 254 kts 354°
2026-05-08 01:34 60.18195 25.21220 8505 ft 251 kts 354°
2026-05-08 01:34 60.19931 25.20971 8218 ft 249 kts 354°
2026-05-08 01:34 60.21652 25.20723 7929 ft 247 kts 354°
2026-05-08 01:35 60.23359 25.20478 7641 ft 245 kts 354°
2026-05-08 01:35 60.25039 25.20237 7334 ft 245 kts 354°
2026-05-08 01:35 60.26738 25.19993 7055 ft 244 kts 354°
2026-05-08 01:35 60.28426 25.19749 6778 ft 243 kts 354°
2026-05-08 01:36 60.30107 25.19571 6482 ft 242 kts
2026-05-08 01:36 60.31721 25.20588 6088 ft 249 kts 30°
2026-05-08 01:36 60.33023 25.22931 5755 ft 253 kts 44°
2026-05-08 01:36 60.34213 25.25482 5581 ft 247 kts 44°
2026-05-08 01:37 60.35350 25.27953 5458 ft 239 kts 44°
2026-05-08 01:37 60.36457 25.30380 5332 ft 231 kts 44°
2026-05-08 01:37 60.37537 25.32767 5076 ft 230 kts 44°
2026-05-08 01:37 60.38687 25.34960 4764 ft 225 kts 27°
2026-05-08 01:38 60.40135 25.35734 4641 ft 211 kts 357°
2026-05-08 01:38 60.41513 25.35002 4503 ft 202 kts 332°
2026-05-08 01:38 60.42631 25.33368 4378 ft 195 kts 322°
2026-05-08 01:38 60.43660 25.31647 4237 ft 189 kts 321°
2026-05-08 01:39 60.44645 25.29928 4091 ft 183 kts 318°
2026-05-08 01:39 60.45250 25.27708 3874 ft 183 kts 284°
2026-05-08 01:39 60.45105 25.25199 3639 ft 187 kts 251°
2026-05-08 01:39 60.44405 25.22975 3409 ft 188 kts 236°
2026-05-08 01:40 60.43534 25.21011 3131 ft 187 kts 232°
2026-05-08 01:40 60.42658 25.19103 2978 ft 183 kts 232°
2026-05-08 01:40 60.41806 25.17218 2760 ft 181 kts 232°
2026-05-08 01:40 60.40958 25.15335 2539 ft 181 kts 232°
2026-05-08 01:41 60.40125 25.13499 2334 ft 176 kts 232°
2026-05-08 01:41 60.39300 25.11673 2094 ft 173 kts 231°
2026-05-08 01:41 60.38531 25.09973 1899 ft 157 kts 232°
2026-05-08 01:41 60.37817 25.08391 1653 ft 152 kts 232°
2026-05-08 01:42 60.37109 25.06823 1437 ft 151 kts 232°
2026-05-08 01:42 60.36395 25.05265 1261 ft 151 kts 232°
2026-05-08 01:42 60.35690 25.03703 1023 ft 147 kts 232°
2026-05-08 01:42 60.35026 25.02188 765 ft 142 kts 230°
2026-05-08 01:43 60.34345 25.00749 551 ft 142 kts 230°
2026-05-08 01:43 60.33687 24.99283 384 ft 140 kts 230°
2026-05-08 01:43 60.33035 24.97847 218 ft 137 kts 231°
2026-05-08 01:43 60.32441 24.96533 164 ft 106 kts 227°
2026-05-08 01:44 60.32105 24.95780 165 ft 37 kts 227°
2026-05-08 01:44 60.31916 24.95398 164 ft 40 kts 212°
2026-05-08 01:44 60.31761 24.95244 166 ft 17 kts 201°
2026-05-08 01:44 60.31724 24.95218 165 ft 4 kts 197°
2026-05-08 01:45 60.31681 24.95197 164 ft 8 kts 185°
2026-05-08 01:45 60.31622 24.95236 164 ft 10 kts 109°
2026-05-08 01:45 60.31659 24.95370 164 ft 13 kts 46°
2026-05-08 01:45 60.31727 24.95511 164 ft 16 kts 47°
2026-05-08 01:46 60.31806 24.95688 164 ft 18 kts 49°
2026-05-08 01:46 60.31898 24.95894 164 ft 21 kts 47°
2026-05-08 01:46 60.32002 24.96124 164 ft 23 kts 47°
2026-05-08 01:46 60.32119 24.96378 164 ft 26 kts 47°
2026-05-08 01:47 60.32227 24.96611 164 ft 18 kts 47°
2026-05-08 01:47 60.32214 24.96775 164 ft 15 kts 149°
2026-05-08 01:47 60.32114 24.96888 164 ft 18 kts 150°
2026-05-08 01:48 60.31923 24.97095 164 ft 6 kts 152°
2026-05-08 01:48 60.31915 24.97103 164 ft 3 kts 152°
2026-05-08 01:48 60.31889 24.97131 164 ft 6 kts 152°
2026-05-08 01:48 60.31854 24.97140 164 ft 2 kts 210°
2026-05-08 01:49 60.31839 24.97099 164 ft 5 kts 240°
2026-05-08 01:49 60.31830 24.97064 164 ft 1 kts 242°
2026-05-08 01:49 60.31825 24.97046 164 ft 1 kts 242°
2026-05-08 01:49 60.31824 24.97043 164 ft 0 kts 242°